[[{"header":{"parameterUnit":"m.s-1","parameterCategory":1,"la1":30.2991,"la2":30.254,"lo1":-89.0895,"lo2":-89.0444,"dy":0.0017,"dx":0.0017,"nx":28,"ny":28,"refTime":"2025-12-19T03:00:00:Z","depth":0,"parameterNumber":2,"parameterNumberName":"U-component_of_WINDS"},"data":[0,0,0,0,0,0,0,0,0,0,0,0,0,0,0,0,0,0,0,0,0,0,0,0,0,0,0,0,0,0,0,0,0,0,0,0,0,0,0,0,0,0,0,0,0,0,0,0,0,0,0,0,0,0,0,0,0,0,0.9453,0.9453,0,0.9467,0.9467,0.9467,0.9483,0.9483,0.9483,0.9483,0.9496,0.9496,0.9496,0,0,0,0,0,0,0,0,0,0,0,0,0,0.9439,0.944,0.9453,0.9453,0.9454,0.9467,0.9467,0.9467,0.9483,0.9483,0.9483,0.9483,0.9496,0.9496,0.9496,0,0,0,0,0,0,0,0,0,0,0,0,0,0.9448,0.944,0.9453,0.9463,0.9464,0.9467,0.9467,0.9467,0.9482,0.9483,0.9483,0.9483,0.9496,0.9496,0.9496,0.949,0,0,0.9497,0.9497,0,0,0,0,0,0,0,0,0.9448,0.9449,0.9461,0.9462,0.9463,0.9474,0.9467,0.9475,0.9482,0.9475,0.9483,0.9484,0.9488,0.9489,0.9491,0.9491,0.9491,0.9497,0.9497,0.9497,0.9497,0,0,0,0,0,0,0,0.9447,0.9448,0.9459,0.9461,0.9463,0.9466,0.9468,0.9469,0.9479,0.9476,0.9477,0.9479,0.9489,0.949,0.9491,0.9492,0.9497,0.9497,0.9497,0.9497,0.9489,0.9489,0,0,0,0,0,0,0.9445,0.9448,0.9458,0.9459,0.9456,0.9466,0.9468,0.947,0.948,0.9481,0.9478,0.9479,0.949,0.9491,0.9491,0.9486,0.9497,0.9497,0.9497,0.9489,0.9489,0.9488,0,0,0,0,0,0,0.9445,0.9446,0.9458,0.9454,0.9456,0.9466,0.9468,0.947,0.9472,0.9481,0.9483,0.9478,0.949,0.9491,0.9491,0.9486,0.9497,0.9497,0.949,0.9489,0.9489,0.9474,0,0,0,0,0,0,0.9445,0.9446,0.9444,0.9454,0.9456,0.9457,0.9468,0.947,0.9472,0.9474,0.9482,0.9483,0.949,0.949,0.9491,0.9487,0.9497,0.949,0.9489,0.9489,0.9475,0.9473,0.9472,0,0,0,0,0,0.9444,0.9439,0.9444,0.9445,0.9453,0.9457,0.9458,0.9466,0.9472,0.947,0.9476,0.9483,0.9487,0.949,0.9491,0.9487,0.949,0.949,0.9489,0.9476,0.9473,0.9472,0,0,0,0,0,0,0.9427,0.944,0.9446,0.9444,0.9449,0.9459,0.9457,0.9464,0.9467,0.9468,0.9479,0.948,0.9479,0.9483,0.9486,0.9482,0.949,0.9489,0.9479,0.9477,0.9476,0.9474,0.9497,0,0,0,0,0,0.9423,0.9425,0.9436,0.9433,0.9436,0.9446,0.9448,0.9454,0.946,0.9462,0.9468,0.9473,0.9476,0.9477,0.948,0.9476,0.9478,0.9474,0.9472,0.9471,0.9469,0.9468,0.9466,0.9486,0.9486,0.9486,0,0,0.9415,0.9422,0.9423,0.943,0.9435,0.9436,0.9448,0.9448,0.945,0.9462,0.9462,0.9467,0.9473,0.9471,0.9471,0.9475,0.9465,0.947,0.9468,0.9468,0.9467,0.9465,0.9464,0.9486,0.9486,0.9486,0,0,0.9401,0.9407,0.9405,0.941,0.9418,0.9425,0.9425,0.9434,0.9438,0.9439,0.9448,0.945,0.9454,0.9458,0.946,0.945,0.9456,0.945,0.9441,0.944,0.9438,0.9437,0.9433,0.9431,0.9449,0.9449,0.9449,0,0.9389,0.9392,0.9403,0.9404,0.9407,0.9419,0.9418,0.9422,0.943,0.9432,0.9436,0.9442,0.9447,0.9447,0.9444,0.9446,0.9446,0.9449,0.9438,0.9436,0.9435,0.9431,0.943,0.9449,0.9449,0.9449,0.9449,0,0.9378,0.9379,0.9377,0.9386,0.9389,0.9388,0.9399,0.94,0.9407,0.9414,0.9414,0.9421,0.9426,0.9427,0.9433,0.9427,0.9429,0.9436,0.9443,0.9432,0.9429,0.9428,0.9448,0.9448,0.9448,0.9448,0,0,0.9351,0.9367,0.9366,0.937,0.938,0.9382,0.9382,0.9388,0.9389,0.9395,0.9395,0.9399,0.9405,0.9408,0.9415,0.9414,0.9405,0.9421,0.9421,0.9417,0.9399,0.9394,0.9392,0.941,0.941,0.941,0.9399,0,0.9338,0.934,0.935,0.9349,0.9351,0.9364,0.9364,0.937,0.9377,0.938,0.9387,0.9389,0.9397,0.9399,0.9399,0.9406,0.9402,0.9407,0.941,0.941,0.9407,0.939,0.9385,0.9374,0.9398,0.9397,0.9397,0,0.9322,0.9328,0.9327,0.9338,0.934,0.934,0.9346,0.9349,0.9356,0.9361,0.9365,0.9374,0.9375,0.9383,0.9385,0.9388,0.939,0.9394,0.9394,0.9394,0.9402,0.9389,0.9371,0.9369,0.9395,0.9395,0.9396,0,0.9303,0.931,0.9311,0.9314,0.9327,0.9327,0.9333,0.9341,0.9344,0.9349,0.9351,0.9357,0.9359,0.9363,0.9373,0.9378,0.9374,0.9382,0.9378,0.9377,0.9375,0.9375,0.9356,0.9378,0.9378,0.9378,0.9378,0,0.9286,0.9285,0.9302,0.9302,0.9301,0.9314,0.9313,0.932,0.9327,0.9329,0.934,0.9342,0.9355,0.9358,0.9365,0.9366,0.9367,0.9371,0.9372,0.9369,0.9368,0.937,0.937,0.9377,0.9377,0.9377,0.9377,0,0.9263,0.9275,0.9276,0.929,0.9293,0.9292,0.9303,0.9303,0.9312,0.9314,0.9315,0.9327,0.9331,0.9342,0.9348,0.9354,0.9351,0.9355,0.9349,0.935,0.9344,0.9344,0.9324,0.9322,0.9346,0.9346,0.9346,0,0.9252,0.9251,0.9265,0.9267,0.9272,0.9276,0.9279,0.9292,0.9295,0.9305,0.9305,0.931,0.9314,0.932,0.933,0.9335,0.9339,0.9332,0.9339,0.9336,0.9338,0.9338,0.9338,0.9329,0.9329,0.9329,0.9329,0,0.9229,0.9236,0.924,0.9247,0.9252,0.9257,0.9264,0.9265,0.928,0.9283,0.9288,0.9291,0.9299,0.9304,0.9311,0.9316,0.9325,0.9326,0.9325,0.9321,0.9317,0.9319,0.9343,0.9326,0.9326,0.9327,0.9327,0.9327,0.9211,0.9212,0.9222,0.9227,0.9234,0.924,0.9241,0.925,0.9255,0.9262,0.927,0.9274,0.9283,0.9293,0.9298,0.9302,0.9306,0.9305,0.9304,0.9303,0.9302,0.9318,0.9303,0.9303,0.9303,0.9303,0.9303,0,0.9189,0.9197,0.9202,0.9211,0.9215,0.9225,0.9233,0.9235,0.9239,0.9247,0.9252,0.9258,0.9263,0.9274,0.928,0.928,0.9284,0.9281,0.9281,0.9282,0.9298,0.9298,0.9278,0.9278,0.9278,0.9278,0.9278,0.9278,0.9178,0.9179,0.9187,0.9192,0.92,0.9204,0.9208,0.9214,0.9221,0.9227,0.9232,0.9239,0.9248,0.9255,0.9261,0.9264,0.9265,0.9261,0.9265,0.9279,0.9281,0.9283,0.9283,0.9261,0.9261,0.9249,0.9249,0.9249]},{"header":{"parameterUnit":"m.s-1","parameterCategory":1,"la1":30.2991,"la2":30.254,"lo1":-89.0895,"lo2":-89.0444,"dy":0.0017,"dx":0.0017,"nx":28,"ny":28,"refTime":"2025-12-19T03:00:00:Z","depth":0,"parameterNumber":3,"parameterNumberName":"V-component_of_WINDS"},"data":[0,0,0,0,0,0,0,0,0,0,0,0,0,0,0,0,0,0,0,0,0,0,0,0,0,0,0,0,0,0,0,0,0,0,0,0,0,0,0,0,0,0,0,0,0,0,0,0,0,0,0,0,0,0,0,0,0,0,-5.2704,-5.2705,0,-5.2778,-5.2779,-5.278,-5.2736,-5.2734,-5.2731,-5.2729,-5.2802,-5.2805,-5.2809,0,0,0,0,0,0,0,0,0,0,0,0,0,-5.2519,-5.2523,-5.2704,-5.2705,-5.2706,-5.2778,-5.2779,-5.278,-5.2736,-5.2733,-5.2731,-5.2728,-5.28,-5.2805,-5.2809,0,0,0,0,0,0,0,0,0,0,0,0,0,-5.2597,-5.2524,-5.2703,-5.2692,-5.2692,-5.2778,-5.2779,-5.2781,-5.2737,-5.2733,-5.273,-5.2727,-5.2799,-5.2804,-5.281,-5.291,0,0,-5.2828,-5.2831,0,0,0,0,0,0,0,0,-5.2593,-5.2604,-5.2693,-5.2693,-5.2693,-5.2745,-5.2741,-5.2824,-5.2737,-5.272,-5.2729,-5.2726,-5.2785,-5.2792,-5.2812,-5.2913,-5.2916,-5.2829,-5.2832,-5.2835,-5.2836,0,0,0,0,0,0,0,-5.2588,-5.2601,-5.2733,-5.2694,-5.2694,-5.2683,-5.269,-5.2756,-5.2769,-5.2721,-5.2718,-5.2728,-5.2784,-5.2807,-5.2814,-5.2918,-5.2828,-5.2834,-5.2837,-5.2839,-5.3106,-5.3109,0,0,0,0,0,0,-5.2583,-5.2596,-5.2731,-5.2735,-5.2634,-5.2688,-5.2697,-5.2731,-5.2768,-5.2771,-5.273,-5.2725,-5.2799,-5.2807,-5.2816,-5.2937,-5.2835,-5.284,-5.2843,-5.3102,-5.3107,-5.3111,0,0,0,0,0,0,-5.258,-5.2596,-5.2728,-5.2665,-5.2681,-5.2695,-5.2734,-5.2734,-5.2757,-5.2775,-5.2777,-5.2751,-5.2796,-5.2808,-5.2888,-5.2939,-5.2843,-5.2848,-5.3098,-5.3104,-5.3109,-5.3179,0,0,0,0,0,0,-5.2575,-5.2595,-5.2634,-5.2666,-5.2685,-5.2799,-5.2737,-5.2738,-5.2768,-5.2762,-5.2796,-5.2798,-5.2795,-5.2879,-5.2894,-5.2945,-5.2853,-5.3094,-5.3101,-5.3107,-5.3172,-5.3186,-5.3198,0,0,0,0,0,-5.2568,-5.2649,-5.2636,-5.2652,-5.2734,-5.2802,-5.2812,-5.2808,-5.2772,-5.2811,-5.2823,-5.2797,-5.2931,-5.2888,-5.2904,-5.2958,-5.309,-5.3099,-5.3106,-5.3166,-5.3184,-5.3198,0,0,0,0,0,0,-5.262,-5.2653,-5.2639,-5.2733,-5.2765,-5.2795,-5.2843,-5.2826,-5.2868,-5.2861,-5.2853,-5.286,-5.2944,-5.2958,-5.291,-5.3057,-5.3005,-5.3016,-5.3045,-5.3061,-5.3074,-5.3069,-5.2857,0,0,0,0,0,-5.2642,-5.2697,-5.2722,-5.2802,-5.282,-5.2829,-5.2859,-5.2853,-5.2886,-5.2899,-5.2916,-5.2948,-5.2997,-5.303,-5.3076,-5.3174,-5.3181,-5.3219,-5.3232,-5.3242,-5.3253,-5.3307,-5.3325,-5.3137,-5.3137,-5.3137,0,0,-5.2689,-5.2714,-5.2748,-5.2814,-5.2838,-5.2894,-5.2841,-5.2901,-5.2943,-5.2907,-5.2985,-5.2999,-5.3034,-5.3124,-5.3164,-5.3138,-5.3306,-5.3253,-5.3261,-5.3266,-5.3317,-5.3335,-5.3351,-5.3142,-5.3141,-5.3141,0,0,-5.2803,-5.2827,-5.2898,-5.2924,-5.2963,-5.2969,-5.2986,-5.3018,-5.3027,-5.3105,-5.308,-5.3128,-5.3213,-5.324,-5.3264,-5.3391,-5.3369,-5.3406,-5.3473,-5.3527,-5.3541,-5.3554,-5.3601,-5.3618,-5.3416,-5.3416,-5.3416,0,-5.2855,-5.294,-5.2936,-5.3,-5.3029,-5.3002,-5.3074,-5.3099,-5.315,-5.3171,-5.3141,-5.3249,-5.327,-5.3367,-5.3398,-5.3418,-5.3438,-5.3402,-5.354,-5.3553,-5.3565,-5.3609,-5.3627,-5.342,-5.342,-5.3419,-5.3419,0,-5.3004,-5.3063,-5.3115,-5.3168,-5.3204,-5.3271,-5.3276,-5.3312,-5.3304,-5.3313,-5.3393,-5.3418,-5.347,-5.3492,-5.3483,-5.3588,-5.3571,-5.3541,-5.3488,-5.3588,-5.3629,-5.3646,-5.3426,-5.3425,-5.3423,-5.3422,0,0,-5.3152,-5.3203,-5.3223,-5.3247,-5.3289,-5.3334,-5.34,-5.3452,-5.3484,-5.352,-5.3576,-5.3649,-5.3623,-5.3651,-5.3645,-5.3691,-5.3792,-5.3656,-5.3656,-5.3681,-5.3911,-5.3934,-5.3954,-5.3777,-5.3781,-5.3783,-5.3908,0,-5.327,-5.3387,-5.3386,-5.3495,-5.355,-5.3525,-5.3583,-5.3615,-5.3625,-5.3672,-5.3682,-5.3736,-5.3695,-5.3713,-5.3758,-5.377,-5.3838,-5.3761,-5.3829,-5.3831,-5.3823,-5.3975,-5.4,-5.4117,-5.3924,-5.3927,-5.3929,0,-5.3423,-5.3467,-5.3582,-5.3618,-5.3641,-5.3693,-5.3742,-5.3788,-5.3823,-5.3827,-5.386,-5.3847,-5.3914,-5.3859,-5.3951,-5.3899,-5.3926,-5.3937,-5.3941,-5.3948,-5.3887,-5.3988,-5.4153,-5.4172,-5.3954,-5.3952,-5.395,0,-5.3522,-5.361,-5.3691,-5.3712,-5.3755,-5.3792,-5.3812,-5.3844,-5.3876,-5.3919,-5.394,-5.3988,-5.4015,-5.4053,-5.4054,-5.4013,-5.4147,-5.4092,-5.4153,-5.4153,-5.4183,-5.4181,-5.4357,-5.4199,-5.4198,-5.4198,-5.4198,0,-5.3654,-5.3726,-5.3736,-5.3786,-5.3865,-5.3863,-5.3941,-5.3957,-5.3986,-5.4038,-5.4018,-5.4067,-5.4065,-5.4114,-5.4114,-5.4192,-5.4203,-5.4209,-5.4208,-5.4211,-5.4211,-5.423,-5.4223,-5.4203,-5.4202,-5.4201,-5.42,0,-5.3778,-5.3788,-5.3875,-5.3909,-5.3919,-5.3977,-5.4006,-5.4053,-5.4062,-5.4128,-5.4143,-5.4157,-5.4214,-5.4219,-5.4284,-5.4284,-5.4379,-5.4368,-5.4368,-5.4366,-5.4428,-5.4423,-5.4623,-5.465,-5.4473,-5.4474,-5.4476,0,-5.3863,-5.3918,-5.3959,-5.3994,-5.4016,-5.4071,-5.4105,-5.4105,-5.4141,-5.4186,-5.4228,-5.4284,-5.4329,-5.4421,-5.4436,-5.4487,-5.4478,-5.4545,-5.4486,-5.4488,-5.4481,-5.4479,-5.4485,-5.4557,-5.4559,-5.4561,-5.4562,0,-5.4013,-5.4016,-5.4066,-5.4119,-5.4161,-5.4201,-5.4239,-5.4268,-5.4272,-5.4314,-5.4373,-5.4408,-5.4477,-5.4533,-5.4583,-5.4601,-5.4583,-5.4581,-5.4598,-5.4602,-5.46,-5.4604,-5.4401,-5.4576,-5.4575,-5.4574,-5.4573,-5.4572,-5.4121,-5.417,-5.4207,-5.4265,-5.4294,-5.4331,-5.4378,-5.4394,-5.4444,-5.4501,-5.4497,-5.4564,-5.4598,-5.4663,-5.4686,-5.4737,-5.4714,-5.4739,-5.4745,-5.4751,-5.4759,-5.4591,-5.4746,-5.4745,-5.4745,-5.4745,-5.4744,0,-5.4271,-5.4295,-5.4348,-5.4404,-5.4449,-5.4429,-5.4471,-5.451,-5.4569,-5.4604,-5.4649,-5.4718,-5.4773,-5.4793,-5.4846,-5.4884,-5.4877,-5.4898,-5.4896,-5.49,-5.4775,-5.4756,-5.4903,-5.4903,-5.4903,-5.4903,-5.4903,-5.4902,-5.4355,-5.4438,-5.4445,-5.4541,-5.4564,-5.4631,-5.4656,-5.469,-5.4718,-5.4797,-5.4843,-5.4857,-5.4886,-5.4941,-5.499,-5.4995,-5.5016,-5.5041,-5.5042,-5.4925,-5.4909,-5.4894,-5.4876,-5.5045,-5.5045,-5.5163,-5.5164,-5.5165]}]]